GW7196 Weather Reports


time (UTC)temp
F
wind
direction
speed
knots
gust
knots
rain 1hr
in
rain 24hr
in
rain mn
in
humidity
%
barometer
mb
20260504151027 65 269 0.0 3.5 0.00 0.00 0.00 35 1011.7
20260504150525 65 120 0.0 2.6 0.00 0.00 0.00 35 1011.7
20260504140956 61 229 1.7 1.7 0.00 0.00 0.00 40 1012.3
20260504140453 60 123 0.9 3.5 0.00 0.00 0.00 42 1012.3
20260504130418 55 143 0.9 4.3 0.00 0.00 0.00 48 1012.8
20260504110304 44 135 2.6 3.5 0.00 0.00 0.00 74 1012.7
20260504100223 43 135 3.5 3.5 0.00 0.00 0.00 74 1012.4
20260504081616 43 138 3.5 3.5 0.00 0.00 0.00 72 1012.1
20260504081111 43 138 1.7 3.5 0.00 0.00 0.00 72 1012.1
20260504080609 43 139 3.5 3.5 0.00 0.00 0.00 72 1012.1
20260504080105 42 139 2.6 2.6 0.00 0.00 0.00 74 1011.8
20260504050421 44 139 2.6 3.5 0.00 0.00 0.00 64 1011.5
20260504045918 45 147 3.5 3.5 0.00 0.00 0.00 64 1011.4
20260504045414 45 149 1.7 3.5 0.00 0.00 0.00 62 1011.3
20260504044910 44 145 3.5 3.5 0.00 0.00 0.00 62 1011.4
20260504044408 44 143 2.6 3.5 0.00 0.00 0.00 61 1011.3
20260504043905 44 144 2.6 3.5 0.00 0.00 0.00 62 1011.4
20260504043402 45 141 3.5 3.5 0.00 0.00 0.00 63 1011.3
20260504042859 45 147 3.5 3.5 0.00 0.00 0.00 62 1011.4
20260504042355 45 141 2.6 3.5 0.00 0.00 0.00 61 1011.2
20260504041852 45 134 2.6 3.5 0.00 0.00 0.00 63 1011.3
20260504041348 45 144 2.6 3.5 0.00 0.00 0.00 61 1011.4
20260504040845 45 143 2.6 3.5 0.00 0.00 0.00 59 1011.2
20260504040342 45 148 2.6 3.5 0.00 0.00 0.00 59 1011.3
20260504035838 46 150 1.7 2.6 0.00 0.00 0.00 60 1011.2
20260504035336 46 150 2.6 2.6 0.00 0.00 0.00 56 1011.1
20260504034832 46 145 2.6 2.6 0.00 0.00 0.00 58 1011.3
20260504034330 46 146 2.6 3.5 0.00 0.00 0.00 58 1011.2
20260504033827 46 152 2.6 3.5 0.00 0.00 0.00 58 1011.3
20260504033325 46 152 2.6 3.5 0.00 0.00 0.00 57 1011.2
20260504032821 47 148 2.6 3.5 0.00 0.00 0.00 56 1011.1
20260504032319 47 159 1.7 2.6 0.00 0.00 0.00 55 1011.5
20260504031815 47 159 1.7 2.6 0.00 0.00 0.00 56 1011.0
20260504031313 47 151 1.7 2.6 0.00 0.00 0.00 56 1011.1
20260504030809 47 147 1.7 2.6 0.00 0.00 0.00 53 1011.2
20260504030306 47 151 1.7 2.6 0.00 0.00 0.00 53 1011.2
20260504025802 47 146 1.7 2.6 0.00 0.00 0.00 54 1011.2
20260504025259 48 142 1.7 3.5 0.00 0.00 0.00 54 1011.4
20260504024755 48 142 2.6 2.6 0.00 0.00 0.00 53 1011.3
20260504024252 48 143 2.6 2.6 0.00 0.00 0.00 52 1011.5
20260504023749 49 142 1.7 2.6 0.00 0.00 0.00 50 1011.3
20260504023245 49 139 2.6 2.6 0.00 0.00 0.00 49 1011.4
20260504022741 49 159 1.7 3.5 0.00 0.00 0.00 49 1011.4
20260504022238 49 136 2.6 2.6 0.00 0.00 0.00 48 1011.2
20260504021735 49 143 1.7 2.6 0.00 0.00 0.00 47 1011.3
20260504021232 49 153 1.7 2.6 0.00 0.00 0.00 48 1011.1
20260504020729 48 151 1.7 2.6 0.00 0.00 0.00 48 1011.2
20260504020226 48 144 2.6 2.6 0.00 0.00 0.00 49 1011.3
20260504015722 48 158 1.7 2.6 0.00 0.00 0.00 50 1011.1
20260504015218 48 156 1.7 2.6 0.00 0.00 0.00 49 1011.1
20260504014714 48 149 1.7 2.6 0.00 0.00 0.00 49 1011.1
20260504014211 48 143 1.7 2.6 0.00 0.00 0.00 48 1011.3
20260504013709 48 156 1.7 2.6 0.00 0.00 0.00 48 1011.2
20260504013206 49 157 1.7 3.5 0.00 0.00 0.00 48 1011.2
20260504012703 49 142 2.6 3.5 0.00 0.00 0.00 47 1011.2
20260504012201 49 158 1.7 3.5 0.00 0.00 0.00 47 1011.0
20260504011657 49 141 2.6 2.6 0.00 0.00 0.00 47 1010.9
20260504011154 49 143 3.5 3.5 0.00 0.00 0.00 47 1011.2
20260504010650 49 142 1.7 2.6 0.00 0.00 0.00 47 1011.0
20260504010145 49 152 1.7 2.6 0.00 0.00 0.00 46 1010.8
20260504005643 49 134 1.7 2.6 0.00 0.00 0.00 45 1010.9
20260504005139 49 142 1.7 2.6 0.00 0.00 0.00 45 1010.7
20260504004638 49 142 1.7 2.6 0.00 0.00 0.00 46 1010.8
20260504004134 50 135 1.7 1.7 0.00 0.00 0.00 46 1010.6
20260504003630 50 141 2.6 3.5 0.00 0.00 0.00 44 1010.5
20260504003127 51 140 2.6 2.6 0.00 0.00 0.00 44 1010.6
20260504002624 51 138 2.6 2.6 0.00 0.00 0.00 44 1010.4
20260504002122 52 151 1.7 2.6 0.00 0.00 0.00 43 1010.5
20260504001619 52 134 1.7 2.6 0.00 0.00 0.00 41 1010.3
20260504001115 53 155 0.9 1.7 0.00 0.00 0.00 39 1010.1
20260504000612 53 144 0.9 1.7 0.00 0.00 0.00 39 1010.0
20260504000110 53 143 0.0 1.7 0.00 0.00 0.00 39 1010.2
20260503235608 53 101 0.9 1.7 0.00 0.00 0.00 39 1010.0
20260503235104 53 157 0.9 1.7 0.00 0.00 0.00 38 1009.9
20260503234603 53 193 0.0 1.7 0.00 0.00 0.00 37 1009.9
20260503234100 53 202 0.0 1.7 0.00 0.00 0.00 39 1009.9
20260503233556 54 195 0.0 1.7 0.00 0.00 0.00 37 1009.7
20260503233052 54 150 0.0 1.7 0.00 0.00 0.00 37 1009.7
20260503232550 54 128 0.9 1.7 0.00 0.00 0.00 36 1009.8
20260503232047 55 194 0.0 1.7 0.00 0.00 0.00 35 1009.5
20260503231545 55 114 0.0 0.9 0.00 0.00 0.00 34 1009.5
20260503231041 55 232 0.0 2.6 0.00 0.00 0.00 34 1009.4
20260503230538 55 125 0.0 0.9 0.00 0.00 0.00 34 1009.5
20260503230036 55 283 0.0 1.7 0.00 0.00 0.00 32 1009.5
20260503225533 56 155 0.9 3.5 0.00 0.00 0.00 33 1009.5
20260503225033 56 97 0.0 4.3 0.00 0.00 0.00 33 1009.3
20260503224531 56 31 1.7 2.6 0.00 0.00 0.00 30 1009.1
20260503224028 56 48 0.9 3.5 0.00 0.00 0.00 31 1009.3
20260503223526 56 180 1.7 3.5 0.00 0.00 0.00 30 1009.0
20260503223021 56 118 1.7 2.6 0.00 0.00 0.00 31 1009.4
20260503222520 56 125 1.7 3.5 0.00 0.00 0.00 29 1009.2
20260503222018 55 60 0.9 3.5 0.00 0.00 0.00 30 1009.2
20260503221516 55 216 0.9 3.5 0.00 0.00 0.00 29 1009.2
20260503221013 56 309 0.0 2.6 0.00 0.00 0.00 29 1009.2
20260503220509 56 305 1.7 4.3 0.00 0.00 0.00 29 1009.1
20260503220006 56 197 1.7 4.3 0.00 0.00 0.00 30 1009.0
20260503215503 56 299 2.6 3.5 0.00 0.00 0.00 29 1009.2
20260503215000 56 282 0.0 1.7 0.00 0.00 0.00 29 1009.3
20260503214458 56 127 0.0 1.7 0.00 0.00 0.00 30 1009.0
20260503213955 56 225 1.7 2.6 0.00 0.00 0.00 30 1009.0
20260503213453 56 100 2.6 3.5 0.00 0.00 0.00 29 1009.0
20260503212949 56 49 0.0 3.5 0.00 0.00 0.00 31 1008.9
20260503212446 56 217 0.0 2.6 0.00 0.00 0.00 32 1009.1
20260503211944 56 337 0.9 4.3 0.00 0.00 0.00 31 1008.9
20260503211441 56 73 0.9 2.6 0.00 0.00 0.00 32 1008.9
20260503210936 56 163 0.9 2.6 0.00 0.00 0.00 29 1009.0
20260503210434 56 85 5.2 7.8 0.00 0.00 0.00 30 1009.1
20260503205934 56 307 2.6 4.3 0.00 0.00 0.00 31 1008.7
20260503205431 56 227 1.7 2.6 0.00 0.00 0.00 29 1008.7
20260503204927 56 121 0.9 3.5 0.00 0.00 0.00 32 1009.1
20260503204425 56 260 0.9 4.3 0.00 0.00 0.00 30 1009.2
20260503203921 56 136 1.7 4.3 0.00 0.00 0.00 30 1009.0
20260503203419 56 136 0.9 2.6 0.00 0.00 0.00 32 1009.1
20260503202916 56 41 0.9 1.7 0.00 0.00 0.00 32 1009.0
20260503202414 57 2 0.9 5.2 0.00 0.00 0.00 31 1009.0
20260503201912 56 173 1.7 3.5 0.00 0.00 0.00 33 1009.1
20260503201409 56 300 1.7 2.6 0.00 0.00 0.00 31 1009.1
20260503200906 56 183 3.5 3.5 0.00 0.00 0.00 33 1009.0
20260503200402 56 263 2.6 3.5 0.00 0.00 0.00 32 1009.0
20260503195859 56 58 1.7 7.0 0.00 0.00 0.00 34 1009.3
20260503195356 57 343 2.6 6.1 0.00 0.00 0.00 32 1009.2
20260503194853 56 214 0.0 2.6 0.00 0.00 0.00 35 1009.2
20260503194349 56 261 2.6 4.3 0.00 0.00 0.00 33 1009.4
20260503193845 55 337 1.7 2.6 0.00 0.00 0.00 35 1009.2
20260503193341 56 335 0.9 3.5 0.00 0.00 0.00 33 1009.3
20260503192837 57 294 3.5 3.5 0.00 0.00 0.00 33 1009.3
20260503192333 55 40 3.5 4.3 0.00 0.00 0.00 34 1009.4
20260503191829 57 220 2.6 6.1 0.00 0.00 0.00 33 1009.6
20260503191326 57 349 1.7 2.6 0.00 0.00 0.00 33 1009.6
20260503190823 57 147 0.0 3.5 0.00 0.00 0.00 32 1009.6
20260503190320 55 224 0.0 3.5 0.00 0.00 0.00 35 1009.5
20260503185817 55 269 1.7 6.1 0.00 0.00 0.00 32 1009.6
20260503185314 56 278 3.5 5.2 0.00 0.00 0.00 34 1009.6
20260503184813 55 128 0.9 3.5 0.00 0.00 0.00 39 1009.5
20260503184310 53 103 3.5 3.5 0.00 0.00 0.00 37 1009.7
20260503183806 53 117 1.7 3.5 0.00 0.00 0.00 37 1010.0
20260503183303 53 287 0.9 3.5 0.00 0.00 0.00 36 1009.9
20260503182800 53 78 1.7 4.3 0.00 0.00 0.00 37 1009.7
20260503182300 53 353 0.9 3.5 0.00 0.00 0.00 36 1009.9
20260503181756 57 335 0.0 9.6 0.00 0.00 0.00 34 1010.0
20260503181253 57 83 1.7 3.5 0.00 0.00 0.00 37 1009.8
20260503180749 57 43 1.7 3.5 0.00 0.00 0.00 37 1009.7
20260503180248 55 4 1.7 4.3 0.00 0.00 0.00 38 1009.7
20260503175744 53 299 2.6 3.5 0.00 0.00 0.00 41 1009.8
20260503175242 53 72 3.5 4.3 0.00 0.00 0.00 38 1009.8
20260503174738 55 238 1.7 5.2 0.00 0.00 0.00 35 1009.9
20260503174236 54 38 0.0 6.1 0.00 0.00 0.00 39 1010.1
20260503173736 55 347 0.0 3.5 0.00 0.00 0.00 36 1010.0
20260503173232 54 46 0.9 2.6 0.00 0.00 0.00 40 1010.1
20260503172729 53 98 1.7 4.3 0.00 0.00 0.00 42 1010.1
20260503172226 52 269 3.5 6.1 0.00 0.00 0.00 40 1010.1
20260503171723 51 358 0.9 5.2 0.00 0.00 0.00 40 1010.1
20260503171220 53 60 4.3 4.3 0.00 0.00 0.00 40 1010.2
20260503170717 52 271 2.6 5.2 0.00 0.00 0.00 38 1010.3
20260503170214 52 54 0.9 4.3 0.00 0.00 0.00 39 1010.0
20260503160136 51 190 2.6 3.5 0.00 0.00 0.00 38 1010.2